Time,TemperatureF,DewpointF,PressureIn,WindDirection,WindDirectionDegrees,WindSpeedMPH,WindSpeedGustMPH,Humidity,HourlyPrecipIn,Conditions,Clouds,dailyrainin,SoftwareType,DateUTC
2013-02-14 00:00:00,27.5,24.7,29.93,WSW,239,0.0,0.0,89,0.00,,,0.07,VWS V14.01,2013-02-14 05:00:00,
2013-02-14 00:05:00,27.3,24.5,29.93,WSW,239,0.0,0.0,89,0.00,,,0.00,VWS V14.01,2013-02-14 05:05:00,
2013-02-14 00:10:00,27.2,24.1,29.93,WSW,239,0.0,0.0,88,0.00,,,0.00,VWS V14.01,2013-02-14 05:10:00,
2013-02-14 00:15:00,27.0,23.9,29.93,WSW,239,0.0,0.0,88,0.00,,,0.00,VWS V14.01,2013-02-14 05:15:00,
2013-02-14 00:20:00,26.9,23.8,29.93,WSW,239,0.0,0.0,88,0.00,,,0.00,VWS V14.01,2013-02-14 05:20:00,
2013-02-14 00:25:00,26.7,23.6,29.93,WSW,239,0.0,0.0,88,0.00,,,0.00,VWS V14.01,2013-02-14 05:25:00,
2013-02-14 00:30:00,26.1,22.8,29.94,WSW,239,0.0,0.0,87,0.00,,OVC100,0.00,VWS V14.01,2013-02-14 05:30:00,
2013-02-14 00:31:00,26.6,23.5,29.94,WSW,239,0.0,0.0,88,0.00,,,0.00,VWS V14.01,2013-02-14 05:31:00,
2013-02-14 00:36:00,26.4,23.3,29.94,WSW,239,0.0,0.0,88,0.00,,,0.00,VWS V14.01,2013-02-14 05:36:00,
2013-02-14 00:41:00,26.4,23.3,29.94,WSW,239,0.0,0.0,88,0.00,,,0.00,VWS V14.01,2013-02-14 05:41:00,
2013-02-14 00:45:00,25.7,22.1,29.94,WSW,239,0.0,0.0,86,0.00,,OVC100,0.00,VWS V14.01,2013-02-14 05:45:00,
2013-02-14 00:46:00,26.6,23.5,29.94,WSW,239,0.0,0.0,88,0.00,,,0.00,VWS V14.01,2013-02-14 05:46:00,
2013-02-14 00:51:00,26.6,23.5,29.94,WSW,239,0.0,0.0,88,0.00,,,0.00,VWS V14.01,2013-02-14 05:51:00,
2013-02-14 00:56:00,26.6,23.3,29.94,WSW,239,0.0,0.0,87,0.00,,,0.00,VWS V14.01,2013-02-14 05:56:00,
2013-02-14 01:00:00,25.4,21.8,29.94,WSW,239,0.0,0.0,86,0.00,,OVC100,0.00,VWS V14.01,2013-02-14 06:00:00,
2013-02-14 01:01:00,26.3,23.0,29.94,WSW,239,0.0,0.0,87,0.00,,,0.00,VWS V14.01,2013-02-14 06:01:00,
2013-02-14 01:06:00,26.1,22.8,29.94,WSW,239,0.0,0.0,87,0.00,,,0.00,VWS V14.01,2013-02-14 06:06:00,
2013-02-14 01:11:00,26.1,22.8,29.94,WSW,239,0.0,0.0,87,0.00,,,0.00,VWS V14.01,2013-02-14 06:11:00,
2013-02-14 01:15:00,25.1,21.5,29.94,WSW,239,0.0,0.0,86,0.00,,OVC100,0.00,VWS V14.01,2013-02-14 06:15:00,
2013-02-14 01:16:00,26.1,22.8,29.94,WSW,239,0.0,0.0,87,0.00,,,0.00,VWS V14.01,2013-02-14 06:16:00,
2013-02-14 01:21:00,26.1,22.8,29.94,WSW,239,0.0,0.0,87,0.00,,,0.00,VWS V14.01,2013-02-14 06:21:00,
2013-02-14 01:26:00,26.1,22.8,29.94,WSW,239,0.0,0.0,87,0.00,,,0.00,VWS V14.01,2013-02-14 06:26:00,
2013-02-14 01:30:00,25.0,21.4,29.94,WSW,239,0.0,0.0,86,0.00,,OVC100,0.00,VWS V14.01,2013-02-14 06:30:00,
2013-02-14 01:31:00,26.1,22.8,29.94,WSW,239,0.0,0.0,87,0.00,,,0.00,VWS V14.01,2013-02-14 06:31:00,
2013-02-14 01:36:00,26.0,22.4,29.94,WSW,239,0.0,0.0,86,0.00,,,0.00,VWS V14.01,2013-02-14 06:36:00,
2013-02-14 01:41:00,25.8,22.2,29.94,WSW,239,0.0,0.0,86,0.00,,,0.00,VWS V14.01,2013-02-14 06:41:00,
2013-02-14 01:45:00,24.8,21.2,29.94,WSW,239,0.0,0.0,86,0.00,,OVC100,0.00,VWS V14.01,2013-02-14 06:45:00,
2013-02-14 01:46:00,25.6,22.0,29.94,WSW,239,0.0,0.0,86,0.00,,,0.00,VWS V14.01,2013-02-14 06:46:00,
2013-02-14 01:51:00,25.6,22.0,29.94,WSW,239,0.0,0.0,86,0.00,,,0.00,VWS V14.01,2013-02-14 06:51:00,
2013-02-14 01:56:00,25.4,21.8,29.94,WSW,239,0.0,0.0,86,0.00,,,0.00,VWS V14.01,2013-02-14 06:56:00,
2013-02-14 02:00:00,24.8,21.5,29.94,WSW,239,0.0,0.0,87,0.00,,OVC100,0.00,VWS V14.01,2013-02-14 07:00:00,
2013-02-14 02:01:00,25.3,21.7,29.94,WSW,239,0.0,0.0,86,0.00,,,0.00,VWS V14.01,2013-02-14 07:01:00,
2013-02-14 02:06:00,25.3,21.7,29.94,WSW,239,0.0,0.0,86,0.00,,,0.00,VWS V14.01,2013-02-14 07:06:00,
2013-02-14 02:11:00,25.1,21.5,29.94,WSW,239,0.0,0.0,86,0.00,,,0.00,VWS V14.01,2013-02-14 07:11:00,
2013-02-14 02:15:00,25.0,21.7,29.95,WSW,239,0.0,0.0,87,0.00,,OVC100,0.00,VWS V14.01,2013-02-14 07:15:00,
2013-02-14 02:16:00,25.1,21.5,29.94,WSW,239,0.0,0.0,86,0.00,,,0.00,VWS V14.01,2013-02-14 07:16:00,
2013-02-14 02:21:00,25.1,21.5,29.94,WSW,239,0.0,0.0,86,0.00,,,0.00,VWS V14.01,2013-02-14 07:21:00,
2013-02-14 02:26:00,25.1,21.5,29.94,WSW,239,0.0,0.0,86,0.00,,,0.00,VWS V14.01,2013-02-14 07:26:00,
2013-02-14 02:30:00,25.0,21.7,29.94,WSW,239,0.0,0.0,87,0.00,,OVC100,0.00,VWS V14.01,2013-02-14 07:30:00,
2013-02-14 02:31:00,25.0,21.4,29.94,WSW,239,0.0,0.0,86,0.00,,,0.00,VWS V14.01,2013-02-14 07:31:00,
2013-02-14 02:36:00,25.0,21.4,29.94,WSW,239,0.0,0.0,86,0.00,,,0.00,VWS V14.01,2013-02-14 07:36:00,
2013-02-14 02:41:00,25.0,21.4,29.94,WSW,239,0.0,0.0,86,0.00,,,0.00,VWS V14.01,2013-02-14 07:41:00,
2013-02-14 02:45:00,24.8,21.5,29.94,WSW,239,0.0,0.0,87,0.00,,OVC100,0.00,VWS V14.01,2013-02-14 07:45:00,
2013-02-14 02:46:00,24.8,21.2,29.94,WSW,239,0.0,0.0,86,0.00,,,0.00,VWS V14.01,2013-02-14 07:46:00,
2013-02-14 02:51:00,24.7,21.1,29.94,WSW,239,0.0,0.0,86,0.00,,,0.00,VWS V14.01,2013-02-14 07:51:00,
2013-02-14 02:56:00,24.8,21.5,29.94,WSW,239,0.0,0.0,87,0.00,,,0.00,VWS V14.01,2013-02-14 07:56:00,
2013-02-14 03:00:00,25.3,22.2,29.95,WSW,239,0.0,0.0,88,0.00,,OVC100,0.00,VWS V14.01,2013-02-14 08:00:00,
2013-02-14 03:01:00,24.8,21.5,29.94,WSW,239,0.0,0.0,87,0.00,,,0.00,VWS V14.01,2013-02-14 08:01:00,
2013-02-14 03:06:00,25.0,21.4,29.95,WSW,239,0.0,0.0,86,0.00,,,0.00,VWS V14.01,2013-02-14 08:06:00,
2013-02-14 03:11:00,25.0,21.7,29.95,WSW,239,0.0,0.0,87,0.00,,,0.00,VWS V14.01,2013-02-14 08:11:00,
2013-02-14 03:15:00,25.7,22.6,29.95,WSW,239,0.0,0.0,88,0.00,,OVC100,0.00,VWS V14.01,2013-02-14 08:15:00,
2013-02-14 03:16:00,25.0,21.7,29.95,WSW,239,0.0,0.0,87,0.00,,,0.00,VWS V14.01,2013-02-14 08:16:00,
2013-02-14 03:21:00,25.0,21.7,29.95,WSW,239,0.0,0.0,87,0.00,,,0.00,VWS V14.01,2013-02-14 08:21:00,
2013-02-14 03:26:00,25.1,21.8,29.94,WSW,239,0.0,0.0,87,0.00,,,0.00,VWS V14.01,2013-02-14 08:26:00,
2013-02-14 03:30:00,25.8,22.7,29.94,WSW,239,0.0,0.0,88,0.00,,OVC100,0.00,VWS V14.01,2013-02-14 08:30:00,
2013-02-14 03:31:00,25.0,21.7,29.94,WSW,239,0.0,0.0,87,0.00,,,0.00,VWS V14.01,2013-02-14 08:31:00,
2013-02-14 03:36:00,24.8,21.5,29.94,WSW,239,0.0,0.0,87,0.00,,,0.00,VWS V14.01,2013-02-14 08:36:00,
2013-02-14 03:41:00,24.8,21.8,29.94,WSW,239,0.0,0.0,88,0.00,,,0.00,VWS V14.01,2013-02-14 08:41:00,
2013-02-14 03:45:00,26.0,22.7,29.94,WSW,239,0.0,0.0,87,0.00,,OVC100,0.00,VWS V14.01,2013-02-14 08:45:00,
2013-02-14 03:47:00,24.8,21.5,29.94,WSW,239,0.0,0.0,87,0.00,,,0.00,VWS V14.01,2013-02-14 08:47:00,
2013-02-14 03:52:00,24.8,21.8,29.94,WSW,239,0.0,0.0,88,0.00,,,0.00,VWS V14.01,2013-02-14 08:52:00,
2013-02-14 03:57:00,25.0,22.0,29.95,WSW,239,0.0,0.0,88,0.00,,,0.00,VWS V14.01,2013-02-14 08:57:00,
2013-02-14 04:00:00,26.1,22.8,29.94,WSW,239,0.0,0.0,87,0.00,,OVC100,0.00,VWS V14.01,2013-02-14 09:00:00,
2013-02-14 04:02:00,25.3,22.2,29.95,WSW,239,0.0,0.0,88,0.00,,BKN045,0.00,VWS V14.01,2013-02-14 09:02:00,
2013-02-14 04:07:00,25.4,22.4,29.94,WSW,239,0.0,0.0,88,0.00,,BKN045,0.00,VWS V14.01,2013-02-14 09:07:00,
2013-02-14 04:12:00,25.6,22.5,29.94,WSW,239,0.0,0.0,88,0.00,,BKN045,0.00,VWS V14.01,2013-02-14 09:12:00,
2013-02-14 04:15:00,27.6,24.8,29.94,WSW,239,0.0,0.0,89,0.00,,OVC100,0.00,VWS V14.01,2013-02-14 09:15:00,
2013-02-14 04:17:00,25.8,22.7,29.95,WSW,239,0.0,0.0,88,0.00,,BKN045,0.00,VWS V14.01,2013-02-14 09:17:00,
2013-02-14 04:22:00,25.8,22.7,29.94,WSW,239,0.0,0.0,88,0.00,,BKN045,0.00,VWS V14.01,2013-02-14 09:22:00,
2013-02-14 04:27:00,25.8,22.5,29.94,WSW,239,0.0,0.0,87,0.00,,BKN045,0.00,VWS V14.01,2013-02-14 09:27:00,
2013-02-14 04:30:00,29.0,26.4,29.94,WSW,237,0.0,0.0,90,0.00,,OVC100,0.00,VWS V14.01,2013-02-14 09:30:00,
2013-02-14 04:32:00,26.0,22.9,29.94,WSW,239,0.0,0.0,88,0.00,,BKN045,0.00,VWS V14.01,2013-02-14 09:32:00,
2013-02-14 04:37:00,25.8,22.5,29.95,WSW,239,0.0,0.0,87,0.00,,BKN045,0.00,VWS V14.01,2013-02-14 09:37:00,
2013-02-14 04:42:00,26.0,22.7,29.95,WSW,239,0.0,0.0,87,0.00,,BKN045,0.00,VWS V14.01,2013-02-14 09:42:00,
2013-02-14 04:45:00,30.3,27.7,29.94,WSW,237,0.0,7.0,90,0.00,,OVC100,0.00,VWS V14.01,2013-02-14 09:45:00,
2013-02-14 04:47:00,26.0,22.7,29.94,WSW,239,0.0,0.0,87,0.00,,BKN045,0.00,VWS V14.01,2013-02-14 09:47:00,
2013-02-14 04:52:00,26.0,22.7,29.94,WSW,239,0.0,0.0,87,0.00,,BKN045,0.00,VWS V14.01,2013-02-14 09:52:00,
2013-02-14 04:57:00,26.0,22.7,29.94,WSW,239,0.0,0.0,87,0.00,,BKN045,0.00,VWS V14.01,2013-02-14 09:57:00,
2013-02-14 05:00:00,31.2,28.6,29.94,WSW,237,5.0,7.0,90,0.00,,OVC100,0.00,VWS V14.01,2013-02-14 10:00:00,
2013-02-14 05:02:00,26.1,22.8,29.94,WSW,239,0.0,0.0,87,0.00,,OVC055,0.00,VWS V14.01,2013-02-14 10:02:00,
2013-02-14 05:07:00,26.6,23.5,29.95,WSW,239,0.0,0.0,88,0.00,,OVC055,0.00,VWS V14.01,2013-02-14 10:07:00,
2013-02-14 05:12:00,27.3,24.2,29.94,WSW,239,0.0,0.0,88,0.00,,OVC055,0.00,VWS V14.01,2013-02-14 10:12:00,
2013-02-14 05:15:00,31.6,28.7,29.94,WSW,237,6.0,6.0,89,0.00,,OVC100,0.00,VWS V14.01,2013-02-14 10:15:00,
2013-02-14 05:17:00,27.8,25.0,29.94,WSW,237,0.0,0.0,89,0.00,,OVC055,0.00,VWS V14.01,2013-02-14 10:17:00,
2013-02-14 05:22:00,28.2,25.4,29.94,WSW,237,0.0,0.0,89,0.00,,OVC055,0.00,VWS V14.01,2013-02-14 10:22:00,
2013-02-14 05:27:00,28.7,25.9,29.94,WSW,237,0.0,0.0,89,0.00,,OVC055,0.00,VWS V14.01,2013-02-14 10:27:00,
2013-02-14 05:30:00,31.8,28.9,29.94,WSW,237,0.0,6.0,89,0.00,,OVC100,0.00,VWS V14.01,2013-02-14 10:30:00,
2013-02-14 05:32:00,29.1,26.5,29.94,WSW,237,0.0,3.0,90,0.00,,OVC055,0.00,VWS V14.01,2013-02-14 10:32:00,
2013-02-14 05:37:00,29.7,27.1,29.94,WSW,237,1.0,6.0,90,0.00,,OVC055,0.00,VWS V14.01,2013-02-14 10:37:00,
2013-02-14 05:42:00,30.1,27.5,29.94,WSW,237,1.0,7.0,90,0.00,,OVC055,0.00,VWS V14.01,2013-02-14 10:42:00,
2013-02-14 05:45:00,31.9,29.0,29.94,WSW,237,0.0,10.0,89,0.00,,OVC100,0.00,VWS V14.01,2013-02-14 10:45:00,
2013-02-14 05:47:00,30.6,28.0,29.94,WSW,237,0.0,7.0,90,0.00,,OVC055,0.00,VWS V14.01,2013-02-14 10:47:00,
2013-02-14 05:52:00,30.7,28.1,29.94,WSW,237,1.0,6.0,90,0.00,,OVC055,0.00,VWS V14.01,2013-02-14 10:52:00,
2013-02-14 05:57:00,31.0,28.4,29.94,WSW,237,0.0,7.0,90,0.00,,OVC055,0.00,VWS V14.01,2013-02-14 10:57:00,
2013-02-14 06:00:00,32.2,29.3,29.94,WSW,237,0.0,0.0,89,0.00,,OVC100,0.00,VWS V14.01,2013-02-14 11:00:00,
2013-02-14 06:02:00,31.2,28.6,29.94,WSW,237,0.0,7.0,90,0.00,,OVC050,0.00,VWS V14.01,2013-02-14 11:02:00,
2013-02-14 06:07:00,31.5,28.9,29.94,WSW,237,0.0,7.0,90,0.00,,OVC050,0.00,VWS V14.01,2013-02-14 11:07:00,
2013-02-14 06:12:00,31.6,29.0,29.94,WSW,237,2.0,7.0,90,0.00,,OVC050,0.00,VWS V14.01,2013-02-14 11:12:00,
2013-02-14 06:15:00,31.9,29.0,29.94,WSW,237,0.0,3.0,89,0.00,,OVC100,0.00,VWS V14.01,2013-02-14 11:15:00,
2013-02-14 06:17:00,31.6,28.7,29.94,WSW,237,3.0,6.0,89,0.00,,OVC050,0.00,VWS V14.01,2013-02-14 11:17:00,
2013-02-14 06:22:00,31.6,28.7,29.94,WSW,237,0.0,6.0,89,0.00,,OVC050,0.00,VWS V14.01,2013-02-14 11:22:00,
2013-02-14 06:27:00,31.8,28.9,29.94,WSW,237,3.0,6.0,89,0.00,,OVC050,0.00,VWS V14.01,2013-02-14 11:27:00,
2013-02-14 06:30:00,31.8,28.9,29.95,WSW,237,0.0,0.0,89,0.00,,OVC100,0.00,VWS V14.01,2013-02-14 11:30:00,
2013-02-14 06:32:00,31.8,28.9,29.94,WSW,237,0.0,6.0,89,0.00,,OVC050,0.00,VWS V14.01,2013-02-14 11:32:00,
2013-02-14 06:37:00,31.9,29.0,29.94,WSW,237,0.0,7.0,89,0.00,,OVC050,0.00,VWS V14.01,2013-02-14 11:37:00,
2013-02-14 06:42:00,31.9,29.0,29.94,WSW,237,0.0,10.0,89,0.00,,OVC050,0.00,VWS V14.01,2013-02-14 11:42:00,
2013-02-14 06:45:00,31.6,28.7,29.95,WSW,237,5.0,7.0,89,0.00,,OVC100,0.00,VWS V14.01,2013-02-14 11:45:00,
2013-02-14 06:47:00,32.1,29.2,29.94,WSW,237,0.0,6.0,89,0.00,,OVC050,0.00,VWS V14.01,2013-02-14 11:47:00,
2013-02-14 06:52:00,32.1,29.2,29.94,WSW,237,0.0,6.0,89,0.00,,OVC050,0.00,VWS V14.01,2013-02-14 11:52:00,
2013-02-14 06:57:00,32.2,29.3,29.94,WSW,237,0.0,0.0,89,0.00,,OVC050,0.00,VWS V14.01,2013-02-14 11:57:00,
2013-02-14 07:00:00,31.9,29.0,29.95,WSW,237,0.0,0.0,89,0.00,,OVC100,0.00,VWS V14.01,2013-02-14 12:00:00,
2013-02-14 07:02:00,32.2,29.3,29.94,WSW,237,0.0,0.0,89,0.00,,OVC050,0.00,VWS V14.01,2013-02-14 12:02:00,
2013-02-14 07:07:00,32.2,29.3,29.94,WSW,237,0.0,0.0,89,0.00,,OVC050,0.00,VWS V14.01,2013-02-14 12:07:00,
2013-02-14 07:12:00,32.1,29.2,29.94,WSW,237,0.0,3.0,89,0.00,,OVC050,0.00,VWS V14.01,2013-02-14 12:12:00,
2013-02-14 07:15:00,31.6,28.7,29.96,WSW,237,0.0,5.0,89,0.00,,OVC100,0.00,VWS V14.01,2013-02-14 12:15:00,
2013-02-14 07:18:00,31.8,28.9,29.94,WSW,237,0.0,0.0,89,0.00,,OVC050,0.00,VWS V14.01,2013-02-14 12:18:00,
2013-02-14 07:23:00,31.8,28.9,29.95,WSW,237,0.0,5.0,89,0.00,,OVC050,0.00,VWS V14.01,2013-02-14 12:23:00,
2013-02-14 07:29:00,31.8,28.9,29.95,WSW,237,0.0,0.0,89,0.00,,OVC050,0.00,VWS V14.01,2013-02-14 12:29:00,
2013-02-14 07:30:00,31.6,28.7,29.96,WSW,237,2.0,4.0,89,0.00,,OVC100,0.00,VWS V14.01,2013-02-14 12:30:00,
2013-02-14 07:34:00,31.8,28.9,29.95,WSW,237,0.0,0.0,89,0.00,,OVC050,0.00,VWS V14.01,2013-02-14 12:34:00,
2013-02-14 07:39:00,31.6,28.7,29.95,WSW,237,0.0,0.0,89,0.00,,OVC050,0.00,VWS V14.01,2013-02-14 12:39:00,
2013-02-14 07:44:00,31.6,28.7,29.95,WSW,237,0.0,7.0,89,0.00,,OVC050,0.00,VWS V14.01,2013-02-14 12:44:00,
2013-02-14 07:45:00,31.6,28.7,29.96,WSW,237,0.0,3.0,89,0.00,,OVC100,0.00,VWS V14.01,2013-02-14 12:45:00,
2013-02-14 07:49:00,31.9,29.0,29.95,WSW,237,0.0,6.0,89,0.00,,OVC050,0.00,VWS V14.01,2013-02-14 12:49:00,
2013-02-14 07:54:00,31.9,29.0,29.95,WSW,237,0.0,0.0,89,0.00,,OVC050,0.00,VWS V14.01,2013-02-14 12:54:00,
2013-02-14 07:59:00,31.9,29.0,29.95,WSW,237,0.0,0.0,89,0.00,,OVC050,0.00,VWS V14.01,2013-02-14 12:59:00,
2013-02-14 08:00:00,32.4,29.8,29.96,WSW,237,3.0,6.0,90,0.00,,OVC100,0.00,VWS V14.01,2013-02-14 13:00:00,
2013-02-14 08:04:00,31.8,28.9,29.95,WSW,237,0.0,4.0,89,0.00,,,0.00,VWS V14.01,2013-02-14 13:04:00,
2013-02-14 08:09:00,31.8,28.9,29.95,WSW,237,0.0,5.0,89,0.00,,,0.00,VWS V14.01,2013-02-14 13:09:00,
2013-02-14 08:14:00,31.8,28.9,29.96,WSW,237,0.0,5.0,89,0.00,,,0.00,VWS V14.01,2013-02-14 13:14:00,
2013-02-14 08:15:00,32.9,30.3,29.96,SW,234,0.0,7.0,90,0.00,,OVC100,0.00,VWS V14.01,2013-02-14 13:15:00,
2013-02-14 08:19:00,31.6,28.7,29.96,WSW,237,0.0,3.0,89,0.00,,,0.00,VWS V14.01,2013-02-14 13:19:00,
2013-02-14 08:24:00,31.6,28.7,29.96,WSW,237,0.0,6.0,89,0.00,,,0.00,VWS V14.01,2013-02-14 13:24:00,
2013-02-14 08:29:00,31.6,28.7,29.96,WSW,237,0.0,0.0,89,0.00,,,0.00,VWS V14.01,2013-02-14 13:29:00,
2013-02-14 08:30:00,33.1,30.5,29.96,South,185,4.0,10.0,90,0.00,,OVC100,0.00,VWS V14.01,2013-02-14 13:30:00,
2013-02-14 08:34:00,31.5,28.6,29.96,WSW,237,0.0,7.0,89,0.00,,,0.00,VWS V14.01,2013-02-14 13:34:00,
2013-02-14 08:40:00,31.6,28.7,29.96,WSW,237,0.0,5.0,89,0.00,,,0.00,VWS V14.01,2013-02-14 13:40:00,
2013-02-14 08:45:00,31.6,28.7,29.96,WSW,237,0.0,3.0,89,0.00,,,0.00,VWS V14.01,2013-02-14 13:45:00,
2013-02-14 08:50:00,31.8,28.9,29.96,WSW,237,1.0,3.0,89,0.00,,,0.00,VWS V14.01,2013-02-14 13:50:00,
2013-02-14 08:55:00,31.9,29.3,29.96,WSW,237,2.0,6.0,90,0.00,,,0.00,VWS V14.01,2013-02-14 13:55:00,
2013-02-14 09:00:00,32.4,29.8,29.96,WSW,237,1.0,6.0,90,0.00,,,0.00,VWS V14.01,2013-02-14 14:00:00,
2013-02-14 09:05:00,32.7,30.1,29.96,SW,236,0.0,5.0,90,0.00,,,0.00,VWS V14.01,2013-02-14 14:05:00,
2013-02-14 09:10:00,32.8,30.2,29.97,SW,236,2.0,7.0,90,0.00,,,0.00,VWS V14.01,2013-02-14 14:10:00,
2013-02-14 09:15:00,32.9,30.3,29.96,SW,234,0.0,7.0,90,0.00,,,0.00,VWS V14.01,2013-02-14 14:15:00,
2013-02-14 09:20:00,33.1,30.5,29.96,SSW,196,2.0,7.0,90,0.00,,,0.00,VWS V14.01,2013-02-14 14:20:00,
2013-02-14 09:25:00,33.1,30.5,29.97,South,188,1.0,6.0,90,0.00,,,0.00,VWS V14.01,2013-02-14 14:25:00,
2013-02-14 09:30:00,33.1,30.5,29.96,South,179,2.0,10.0,90,0.00,,,0.00,VWS V14.01,2013-02-14 14:30:00,
2013-02-14 09:35:00,33.1,30.5,29.97,South,188,3.0,10.0,90,0.00,,,0.00,VWS V14.01,2013-02-14 14:35:00,
2013-02-14 09:40:00,33.2,30.6,29.97,South,188,1.0,7.0,90,0.00,,,0.00,VWS V14.01,2013-02-14 14:40:00,
2013-02-14 09:45:00,33.4,30.8,29.96,South,182,0.0,7.0,90,0.00,,,0.00,VWS V14.01,2013-02-14 14:45:00,
2013-02-14 09:50:00,33.4,30.8,29.96,South,178,1.0,13.0,90,0.00,,,0.00,VWS V14.01,2013-02-14 14:50:00,
2013-02-14 09:55:00,33.4,30.8,29.96,South,176,0.0,7.0,90,0.00,,,0.00,VWS V14.01,2013-02-14 14:55:00,
2013-02-14 10:00:00,33.4,30.8,29.96,SSE,152,1.0,10.0,90,0.00,,,0.00,VWS V14.01,2013-02-14 15:00:00,
2013-02-14 10:05:00,33.5,30.9,29.96,South,174,2.0,11.0,90,0.00,,,0.00,VWS V14.01,2013-02-14 15:05:00,
2013-02-14 10:10:00,33.5,30.9,29.96,SSW,198,5.0,8.0,90,0.00,,,0.00,VWS V14.01,2013-02-14 15:10:00,
2013-02-14 10:15:00,33.5,30.9,29.96,South,181,2.0,13.0,90,0.00,,,0.00,VWS V14.01,2013-02-14 15:15:00,
2013-02-14 10:20:00,33.7,31.1,29.96,South,189,0.0,13.0,90,0.00,,,0.00,VWS V14.01,2013-02-14 15:20:00,
2013-02-14 10:25:00,34.0,31.4,29.95,SSW,209,3.0,11.0,90,0.00,,,0.00,VWS V14.01,2013-02-14 15:25:00,
2013-02-14 10:30:00,34.1,31.5,29.95,SSW,202,1.0,8.0,90,0.00,,,0.00,VWS V14.01,2013-02-14 15:30:00,
2013-02-14 10:35:00,34.1,31.5,29.95,SSW,198,6.0,11.0,90,0.00,,,0.00,VWS V14.01,2013-02-14 15:35:00,
2013-02-14 10:40:00,34.3,31.7,29.95,SSW,208,3.0,13.0,90,0.00,,,0.00,VWS V14.01,2013-02-14 15:40:00,
2013-02-14 10:45:00,34.4,31.8,29.95,SSW,203,10.0,14.0,90,0.00,,,0.00,VWS V14.01,2013-02-14 15:45:00,
2013-02-14 10:50:00,34.7,32.1,29.95,SW,224,4.0,14.0,90,0.00,,,0.00,VWS V14.01,2013-02-14 15:50:00,
2013-02-14 10:55:00,34.9,32.0,29.95,SSW,195,8.0,16.0,89,0.00,,,0.00,VWS V14.01,2013-02-14 15:55:00,
2013-02-14 11:00:00,35.0,32.1,29.94,SSW,213,10.0,10.0,89,0.00,,,0.00,VWS V14.01,2013-02-14 16:00:00,
2013-02-14 11:05:00,35.0,32.1,29.94,SSW,198,4.0,11.0,89,0.00,,,0.00,VWS V14.01,2013-02-14 16:05:00,
2013-02-14 11:10:00,35.0,32.1,29.94,South,189,0.0,10.0,89,0.00,,,0.00,VWS V14.01,2013-02-14 16:10:00,
2013-02-14 11:15:00,35.2,32.3,29.94,SE,144,6.0,13.0,89,0.00,,,0.00,VWS V14.01,2013-02-14 16:15:00,
2013-02-14 11:20:00,35.2,32.3,29.95,SSE,165,7.0,14.0,89,0.00,,,0.00,VWS V14.01,2013-02-14 16:20:00,
2013-02-14 11:25:00,35.2,32.3,29.95,South,189,5.0,14.0,89,0.00,,,0.00,VWS V14.01,2013-02-14 16:25:00,
2013-02-14 11:30:00,35.3,32.4,29.95,SSW,212,0.0,10.0,89,0.00,,,0.00,VWS V14.01,2013-02-14 16:30:00,
2013-02-14 11:35:00,35.5,32.6,29.95,SSW,200,6.0,13.0,89,0.00,,,0.00,VWS V14.01,2013-02-14 16:35:00,
2013-02-14 11:41:00,35.3,32.1,29.95,SW,215,6.0,13.0,88,0.00,,,0.00,VWS V14.01,2013-02-14 16:41:00,
2013-02-14 11:45:00,36.3,33.1,29.93,SW,215,7.0,16.0,88,0.00,,OVC100,0.00,VWS V14.01,2013-02-14 16:45:00,
2013-02-14 11:46:00,35.5,32.3,29.95,SW,219,0.0,12.0,88,0.00,,,0.00,VWS V14.01,2013-02-14 16:46:00,
2013-02-14 11:51:00,35.5,32.3,29.95,SSW,195,6.0,9.0,88,0.00,,,0.00,VWS V14.01,2013-02-14 16:51:00,
2013-02-14 11:56:00,35.5,32.3,29.95,South,189,2.0,16.0,88,0.00,,,0.00,VWS V14.01,2013-02-14 16:56:00,
2013-02-14 12:00:00,36.6,33.1,29.93,South,186,3.0,15.0,87,0.00,,OVC100,0.00,VWS V14.01,2013-02-14 17:00:00,
2013-02-14 12:01:00,35.6,32.4,29.95,SSW,213,3.0,13.0,88,0.00,,,0.00,VWS V14.01,2013-02-14 17:01:00,
2013-02-14 12:06:00,35.6,32.4,29.95,South,186,3.0,14.0,88,0.00,,OVC008,0.00,VWS V14.01,2013-02-14 17:06:00,
2013-02-14 12:11:00,35.8,32.6,29.95,SW,215,6.0,21.0,88,0.00,,OVC008,0.00,VWS V14.01,2013-02-14 17:11:00,
2013-02-14 12:15:00,37.3,33.5,29.92,South,188,0.0,14.0,86,0.00,,OVC100,0.00,VWS V14.01,2013-02-14 17:15:00,
2013-02-14 12:16:00,35.8,32.6,29.95,SSW,209,13.0,20.0,88,0.00,,OVC008,0.00,VWS V14.01,2013-02-14 17:16:00,
2013-02-14 12:21:00,35.9,32.7,29.95,WSW,250,0.0,20.0,88,0.00,,OVC008,0.00,VWS V14.01,2013-02-14 17:21:00,
2013-02-14 12:26:00,35.9,32.7,29.94,SSW,208,5.0,14.0,88,0.00,,OVC008,0.00,VWS V14.01,2013-02-14 17:26:00,
2013-02-14 12:30:00,38.0,33.9,29.91,South,176,12.0,17.0,85,0.00,,OVC100,0.00,VWS V14.01,2013-02-14 17:30:00,
2013-02-14 12:31:00,35.9,32.7,29.94,SSW,199,12.0,16.0,88,0.00,,OVC008,0.00,VWS V14.01,2013-02-14 17:31:00,
2013-02-14 12:36:00,36.0,32.8,29.94,SSW,199,10.0,18.0,88,0.00,,OVC008,0.00,VWS V14.01,2013-02-14 17:36:00,
2013-02-14 12:41:00,36.2,33.0,29.94,SSW,198,0.0,14.0,88,0.00,,OVC008,0.00,VWS V14.01,2013-02-14 17:41:00,
2013-02-14 12:45:00,38.2,33.8,29.91,SSW,206,7.0,12.0,84,0.00,,OVC100,0.00,VWS V14.01,2013-02-14 17:45:00,
2013-02-14 12:46:00,36.3,32.8,29.93,SSW,195,8.0,16.0,87,0.00,,OVC008,0.00,VWS V14.01,2013-02-14 17:46:00,
2013-02-14 12:51:00,36.3,32.8,29.93,SW,216,3.0,16.0,87,0.00,,OVC008,0.00,VWS V14.01,2013-02-14 17:51:00,
2013-02-14 12:56:00,36.5,33.0,29.93,SSW,196,6.0,15.0,87,0.00,,OVC008,0.00,VWS V14.01,2013-02-14 17:56:00,
2013-02-14 13:00:00,37.9,33.2,29.91,SSW,209,7.0,14.0,83,0.00,,OVC100,0.00,VWS V14.01,2013-02-14 18:00:00,
2013-02-14 13:01:00,36.6,33.1,29.93,SW,216,5.0,15.0,87,0.00,,OVC008,0.00,VWS V14.01,2013-02-14 18:01:00,
2013-02-14 13:06:00,37.0,33.5,29.92,South,169,11.0,13.0,87,0.00,,OVC008,0.00,VWS V14.01,2013-02-14 18:06:00,
2013-02-14 13:11:00,37.2,33.4,29.92,SSW,203,6.0,14.0,86,0.00,,OVC008,0.00,VWS V14.01,2013-02-14 18:11:00,
2013-02-14 13:15:00,38.3,33.6,29.91,SSW,200,9.0,14.0,83,0.00,,OVC100,0.00,VWS V14.01,2013-02-14 18:15:00,
2013-02-14 13:16:00,37.5,33.7,29.92,SW,220,0.0,14.0,86,0.00,,OVC008,0.00,VWS V14.01,2013-02-14 18:16:00,
2013-02-14 13:21:00,37.8,33.7,29.92,SSW,196,6.0,14.0,85,0.00,,OVC008,0.00,VWS V14.01,2013-02-14 18:21:00,
2013-02-14 13:26:00,38.0,33.9,29.92,South,169,3.0,14.0,85,0.00,,OVC008,0.00,VWS V14.01,2013-02-14 18:26:00,
2013-02-14 13:30:00,38.6,33.9,29.90,SSW,192,0.0,16.0,83,0.00,,OVC100,0.00,VWS V14.01,2013-02-14 18:30:00,
2013-02-14 13:31:00,38.0,33.6,29.91,SSW,208,5.0,17.0,84,0.00,,OVC008,0.00,VWS V14.01,2013-02-14 18:31:00,
2013-02-14 13:36:00,38.2,33.8,29.91,SSW,209,0.0,12.0,84,0.00,,OVC008,0.00,VWS V14.01,2013-02-14 18:36:00,
2013-02-14 13:41:00,38.2,33.5,29.91,SW,215,0.0,12.0,83,0.00,,OVC008,0.00,VWS V14.01,2013-02-14 18:41:00,
2013-02-14 13:45:00,39.6,34.3,29.89,South,186,6.0,12.0,81,0.00,,OVC100,0.00,VWS V14.01,2013-02-14 18:45:00,
2013-02-14 13:46:00,38.2,33.5,29.91,SSW,212,8.0,13.0,83,0.00,,OVC008,0.00,VWS V14.01,2013-02-14 18:46:00,
2013-02-14 13:51:00,38.0,33.6,29.92,SSW,198,0.0,13.0,84,0.00,,OVC008,0.00,VWS V14.01,2013-02-14 18:51:00,
2013-02-14 13:57:00,38.0,33.3,29.91,SSW,213,13.0,13.0,83,0.00,,OVC008,0.00,VWS V14.01,2013-02-14 18:57:00,
2013-02-14 14:00:00,40.1,34.4,29.89,South,189,5.0,14.0,80,0.00,,OVC100,0.00,VWS V14.01,2013-02-14 19:00:00,
2013-02-14 14:02:00,37.9,33.2,29.91,SSW,192,6.0,14.0,83,0.00,,OVC008,0.00,VWS V14.01,2013-02-14 19:02:00,
2013-02-14 14:07:00,38.0,33.3,29.92,SSW,208,5.0,14.0,83,0.00,,OVC012,0.00,VWS V14.01,2013-02-14 19:07:00,
2013-02-14 14:12:00,38.2,33.5,29.91,SSW,212,6.0,14.0,83,0.00,,OVC012,0.00,VWS V14.01,2013-02-14 19:12:00,
2013-02-14 14:15:00,40.8,35.1,29.89,SSW,206,8.0,12.0,80,0.00,,OVC100,0.00,VWS V14.01,2013-02-14 19:15:00,
2013-02-14 14:17:00,38.3,33.6,29.91,SW,217,8.0,13.0,83,0.00,,OVC012,0.00,VWS V14.01,2013-02-14 19:17:00,
2013-02-14 14:22:00,38.3,33.3,29.91,SW,227,8.0,16.0,82,0.00,,OVC012,0.00,VWS V14.01,2013-02-14 19:22:00,
2013-02-14 14:27:00,38.5,33.8,29.91,SSW,199,8.0,14.0,83,0.00,,OVC012,0.00,VWS V14.01,2013-02-14 19:27:00,
2013-02-14 14:30:00,41.2,35.5,29.88,SSW,209,7.0,10.0,80,0.00,,OVC100,0.00,VWS V14.01,2013-02-14 19:30:00,
2013-02-14 14:32:00,38.6,33.6,29.90,SSW,193,8.0,16.0,82,0.00,,OVC012,0.00,VWS V14.01,2013-02-14 19:32:00,
2013-02-14 14:37:00,39.1,34.1,29.90,South,189,3.0,12.0,82,0.00,,OVC012,0.00,VWS V14.01,2013-02-14 19:37:00,
2013-02-14 14:42:00,39.5,34.2,29.89,SSE,165,2.0,12.0,81,0.00,,OVC012,0.00,VWS V14.01,2013-02-14 19:42:00,
2013-02-14 14:45:00,41.8,35.5,29.88,South,185,3.0,8.0,78,0.00,,OVC100,0.00,VWS V14.01,2013-02-14 19:45:00,
2013-02-14 14:47:00,39.8,34.5,29.89,SW,223,9.0,14.0,81,0.00,,OVC012,0.00,VWS V14.01,2013-02-14 19:47:00,
2013-02-14 14:52:00,39.8,34.5,29.89,SSW,202,0.0,14.0,81,0.00,,OVC016,0.00,VWS V14.01,2013-02-14 19:52:00,
2013-02-14 14:57:00,39.9,34.2,29.89,South,175,0.0,14.0,80,0.00,,OVC016,0.00,VWS V14.01,2013-02-14 19:57:00,
2013-02-14 15:00:00,42.6,35.9,29.87,SW,216,0.0,7.0,77,0.00,,OVC100,0.00,VWS V14.01,2013-02-14 20:00:00,
2013-02-14 15:02:00,40.2,34.8,29.89,SSW,192,5.0,11.0,81,0.00,,OVC016,0.00,VWS V14.01,2013-02-14 20:02:00,
2013-02-14 15:07:00,40.5,34.8,29.89,SSW,193,8.0,11.0,80,0.00,,OVC016,0.00,VWS V14.01,2013-02-14 20:07:00,
2013-02-14 15:12:00,40.6,34.9,29.89,South,182,0.0,12.0,80,0.00,,OVC016,0.00,VWS V14.01,2013-02-14 20:12:00,
2013-02-14 15:15:00,44.2,36.5,29.87,SE,140,0.0,8.0,74,0.00,,OVC100,0.00,VWS V14.01,2013-02-14 20:15:00,
2013-02-14 15:17:00,40.8,35.1,29.89,SSE,165,1.0,8.0,80,0.00,,OVC016,0.00,VWS V14.01,2013-02-14 20:17:00,
2013-02-14 15:22:00,40.8,35.1,29.88,SW,215,1.0,11.0,80,0.00,,OVC016,0.00,VWS V14.01,2013-02-14 20:22:00,
2013-02-14 15:27:00,41.1,35.4,29.89,SSW,205,5.0,10.0,80,0.00,,OVC016,0.00,VWS V14.01,2013-02-14 20:27:00,
2013-02-14 15:30:00,44.9,37.1,29.86,SSW,196,0.0,8.0,74,0.00,,OVC100,0.00,VWS V14.01,2013-02-14 20:30:00,
2013-02-14 15:32:00,41.5,35.5,29.88,SSW,193,7.0,11.0,79,0.00,,OVC016,0.00,VWS V14.01,2013-02-14 20:32:00,
2013-02-14 15:37:00,41.6,35.3,29.88,SSW,210,0.0,11.0,78,0.00,,OVC016,0.00,VWS V14.01,2013-02-14 20:37:00,
2013-02-14 15:42:00,41.8,35.5,29.88,South,171,0.0,9.0,78,0.00,,OVC016,0.00,VWS V14.01,2013-02-14 20:42:00,
2013-02-14 15:45:00,46.1,36.5,29.86,SE,144,1.0,10.0,69,0.00,,OVC100,0.00,VWS V14.01,2013-02-14 20:45:00,
2013-02-14 15:47:00,41.9,35.5,29.88,South,174,0.0,10.0,78,0.00,,OVC016,0.00,VWS V14.01,2013-02-14 20:47:00,
2013-02-14 15:52:00,42.1,35.8,29.88,South,191,0.0,10.0,78,0.00,,OVC016,0.00,VWS V14.01,2013-02-14 20:52:00,
2013-02-14 15:57:00,42.5,35.8,29.88,SSW,195,3.0,7.0,77,0.00,,OVC016,0.00,VWS V14.01,2013-02-14 20:57:00,
2013-02-14 16:00:00,46.8,36.1,29.87,SW,216,0.0,13.0,66,0.00,,OVC100,0.00,VWS V14.01,2013-02-14 21:00:00,
2013-02-14 16:02:00,43.1,36.4,29.87,SSW,202,0.0,7.0,77,0.00,,OVC016,0.00,VWS V14.01,2013-02-14 21:02:00,
2013-02-14 16:07:00,43.6,36.2,29.87,South,186,3.0,10.0,75,0.00,,OVC100,0.00,VWS V14.01,2013-02-14 21:07:00,
2013-02-14 16:12:00,44.1,36.7,29.87,South,178,0.0,10.0,75,0.00,,OVC100,0.00,VWS V14.01,2013-02-14 21:12:00,
2013-02-14 16:15:00,46.5,36.2,29.87,SSW,208,4.0,8.0,67,0.00,,OVC100,0.00,VWS V14.01,2013-02-14 21:15:00,
2013-02-14 16:17:00,44.1,36.4,29.87,SSE,158,0.0,7.0,74,0.00,,OVC100,0.00,VWS V14.01,2013-02-14 21:17:00,
2013-02-14 16:22:00,44.3,36.9,29.86,South,179,0.0,6.0,75,0.00,,OVC100,0.00,VWS V14.01,2013-02-14 21:22:00,
2013-02-14 16:27:00,44.6,36.8,29.86,SSE,157,0.0,8.0,74,0.00,,OVC100,0.00,VWS V14.01,2013-02-14 21:27:00,
2013-02-14 16:30:00,46.1,35.8,29.88,SW,215,0.0,7.0,67,0.00,,OVC100,0.00,VWS V14.01,2013-02-14 21:30:00,
2013-02-14 16:32:00,45.2,37.1,29.86,South,188,0.0,1.0,73,0.00,,OVC100,0.00,VWS V14.01,2013-02-14 21:32:00,
2013-02-14 16:37:00,45.4,36.9,29.86,SSW,195,0.0,7.0,72,0.00,,OVC100,0.00,VWS V14.01,2013-02-14 21:37:00,
2013-02-14 16:42:00,45.8,36.6,29.86,SSW,202,7.0,10.0,70,0.00,,OVC100,0.00,VWS V14.01,2013-02-14 21:42:00,
2013-02-14 16:45:00,46.2,35.9,29.88,SW,223,0.0,7.0,67,0.00,,OVC100,0.00,VWS V14.01,2013-02-14 21:45:00,
2013-02-14 16:47:00,46.2,36.2,29.86,SSW,208,5.0,12.0,68,0.00,,OVC100,0.00,VWS V14.01,2013-02-14 21:47:00,
2013-02-14 16:52:00,46.5,36.2,29.87,SSW,208,3.0,13.0,67,0.00,,OVC100,0.00,VWS V14.01,2013-02-14 21:52:00,
2013-02-14 16:57:00,46.8,36.0,29.87,SW,229,10.0,13.0,66,0.00,,OVC100,0.00,VWS V14.01,2013-02-14 21:57:00,
2013-02-14 17:00:00,45.8,35.8,29.88,SSW,205,3.0,5.0,68,0.00,,OVC100,0.00,VWS V14.01,2013-02-14 22:00:00,
2013-02-14 17:02:00,46.8,36.0,29.87,SSW,209,6.0,13.0,66,0.00,,OVC100,0.00,VWS V14.01,2013-02-14 22:02:00,
2013-02-14 17:07:00,46.8,36.0,29.87,SSW,208,0.0,10.0,66,0.00,,OVC100,0.00,VWS V14.01,2013-02-14 22:07:00,
2013-02-14 17:12:00,46.7,36.3,29.87,SSW,199,2.0,10.0,67,0.00,,OVC100,0.00,VWS V14.01,2013-02-14 22:12:00,
2013-02-14 17:15:00,45.2,35.7,29.88,South,181,0.0,0.0,69,0.00,,OVC100,0.00,VWS V14.01,2013-02-14 22:15:00,
2013-02-14 17:18:00,46.5,36.2,29.87,SW,217,6.0,11.0,67,0.00,,OVC100,0.00,VWS V14.01,2013-02-14 22:18:00,
2013-02-14 17:23:00,46.2,35.9,29.87,South,189,0.0,11.0,67,0.00,,OVC100,0.00,VWS V14.01,2013-02-14 22:23:00,
2013-02-14 17:28:00,46.1,35.8,29.87,SW,217,0.0,7.0,67,0.00,,OVC100,0.00,VWS V14.01,2013-02-14 22:28:00,
2013-02-14 17:30:00,44.6,35.4,29.89,South,191,0.0,0.0,70,0.00,,OVC100,0.00,VWS V14.01,2013-02-14 22:30:00,
2013-02-14 17:33:00,46.1,35.8,29.88,SSW,208,2.0,9.0,67,0.00,,CLR,0.00,VWS V14.01,2013-02-14 22:33:00,
2013-02-14 17:38:00,46.1,35.8,29.88,SW,222,0.0,9.0,67,0.00,,CLR,0.00,VWS V14.01,2013-02-14 22:38:00,
2013-02-14 17:43:00,46.2,35.9,29.88,SW,223,0.0,7.0,67,0.00,,CLR,0.00,VWS V14.01,2013-02-14 22:43:00,
2013-02-14 17:45:00,44.8,35.6,29.89,SSW,203,0.0,5.0,70,0.00,,OVC100,0.00,VWS V14.01,2013-02-14 22:45:00,
2013-02-14 17:48:00,46.2,35.9,29.88,SW,223,0.0,3.0,67,0.00,,CLR,0.00,VWS V14.01,2013-02-14 22:48:00,
2013-02-14 17:53:00,46.1,36.1,29.88,SW,223,0.0,0.0,68,0.00,,CLR,0.00,VWS V14.01,2013-02-14 22:53:00,
2013-02-14 17:58:00,46.0,36.0,29.88,SSW,209,0.0,5.0,68,0.00,,CLR,0.00,VWS V14.01,2013-02-14 22:58:00,
2013-02-14 18:00:00,44.9,35.4,29.89,South,188,0.0,5.0,69,0.00,,OVC100,0.00,VWS V14.01,2013-02-14 23:00:00,
2013-02-14 18:03:00,45.8,35.8,29.88,SSW,205,0.0,5.0,68,0.00,,CLR,0.00,VWS V14.01,2013-02-14 23:03:00,
2013-02-14 18:08:00,45.5,35.9,29.88,South,184,0.0,3.0,69,0.00,,CLR,0.00,VWS V14.01,2013-02-14 23:08:00,
2013-02-14 18:13:00,45.4,35.8,29.88,South,181,0.0,0.0,69,0.00,,CLR,0.00,VWS V14.01,2013-02-14 23:13:00,
2013-02-14 18:15:00,45.4,35.5,29.89,SSW,205,1.0,10.0,68,0.00,,OVC100,0.00,VWS V14.01,2013-02-14 23:15:00,
2013-02-14 18:18:00,45.1,35.5,29.88,South,181,0.0,0.0,69,0.00,,BKN060,0.00,VWS V14.01,2013-02-14 23:18:00,
2013-02-14 18:23:00,44.9,35.4,29.89,South,181,0.0,0.0,69,0.00,,BKN060,0.00,VWS V14.01,2013-02-14 23:23:00,
2013-02-14 18:28:00,44.6,35.4,29.89,South,191,0.0,0.0,70,0.00,,BKN060,0.00,VWS V14.01,2013-02-14 23:28:00,
2013-02-14 18:30:00,45.7,36.1,29.91,West,275,11.0,12.0,69,0.00,,OVC100,0.00,VWS V14.01,2013-02-14 23:30:00,
2013-02-14 18:33:00,44.5,35.3,29.89,SSW,192,1.0,4.0,70,0.00,,BKN060,0.00,VWS V14.01,2013-02-14 23:33:00,
2013-02-14 18:38:00,44.6,35.4,29.89,SSW,199,0.0,5.0,70,0.00,,BKN060,0.00,VWS V14.01,2013-02-14 23:38:00,
2013-02-14 18:43:00,44.8,35.6,29.89,SSW,203,0.0,5.0,70,0.00,,BKN060,0.00,VWS V14.01,2013-02-14 23:43:00,
2013-02-14 18:45:00,44.9,35.4,29.92,WNW,284,6.0,8.0,69,0.00,,OVC100,0.00,VWS V14.01,2013-02-14 23:45:00,
2013-02-14 18:48:00,44.9,35.4,29.89,SSW,203,0.0,5.0,69,0.00,,BKN060,0.00,VWS V14.01,2013-02-14 23:48:00,
2013-02-14 18:53:00,44.9,35.4,29.89,SSW,203,0.0,0.0,69,0.00,,BKN060,0.00,VWS V14.01,2013-02-14 23:53:00,
2013-02-14 18:58:00,44.9,35.4,29.89,South,188,0.0,5.0,69,0.00,,BKN060,0.00,VWS V14.01,2013-02-14 23:58:00,
2013-02-14 19:00:00,44.2,34.7,29.92,WSW,243,0.0,4.0,69,0.00,,OVC100,0.00,VWS V14.01,2013-02-15 00:00:00,
2013-02-14 19:03:00,44.9,35.4,29.89,South,188,0.0,5.0,69,0.00,,BKN090,0.00,VWS V14.01,2013-02-15 00:03:00,
2013-02-14 19:08:00,44.9,35.4,29.89,SSW,212,0.0,10.0,69,0.00,,BKN090,0.00,VWS V14.01,2013-02-15 00:08:00,
2013-02-14 19:13:00,45.2,35.7,29.89,SW,215,0.0,10.0,69,0.00,,BKN090,0.00,VWS V14.01,2013-02-15 00:13:00,
2013-02-14 19:15:00,43.5,34.7,29.92,SSW,205,0.0,0.0,71,0.00,,OVC100,0.00,VWS V14.01,2013-02-15 00:15:00,
2013-02-14 19:18:00,45.5,35.6,29.89,NNW,343,7.0,7.0,68,0.00,,BKN090,0.00,VWS V14.01,2013-02-15 00:18:00,
2013-02-14 19:23:00,45.7,36.1,29.91,West,278,5.0,8.0,69,0.00,,BKN090,0.00,VWS V14.01,2013-02-15 00:23:00,
2013-02-14 19:28:00,45.7,36.5,29.92,SW,226,3.0,10.0,70,0.00,,BKN090,0.00,VWS V14.01,2013-02-15 00:28:00,
2013-02-14 19:30:00,42.9,34.5,29.93,SSW,205,0.0,0.0,72,0.00,,OVC100,0.00,VWS V14.01,2013-02-15 00:30:00,
2013-02-14 19:33:00,45.5,35.9,29.91,WNW,285,7.0,12.0,69,0.00,,BKN090,0.00,VWS V14.01,2013-02-15 00:33:00,
2013-02-14 19:38:00,45.2,36.0,29.92,West,275,8.0,10.0,70,0.00,,BKN090,0.00,VWS V14.01,2013-02-15 00:38:00,
2013-02-14 19:43:00,44.9,35.4,29.92,West,263,0.0,8.0,69,0.00,,BKN090,0.00,VWS V14.01,2013-02-15 00:43:00,
2013-02-14 19:45:00,42.1,34.1,29.93,SSW,206,0.0,0.0,73,0.00,,OVC100,0.00,VWS V14.01,2013-02-15 00:45:00,
2013-02-14 19:48:00,44.8,35.3,29.92,West,275,0.0,8.0,69,0.00,,BKN090,0.00,VWS V14.01,2013-02-15 00:48:00,
2013-02-14 19:53:00,44.5,35.0,29.92,West,271,0.0,6.0,69,0.00,,BKN090,0.00,VWS V14.01,2013-02-15 00:53:00,
2013-02-14 19:58:00,44.3,34.8,29.92,WSW,251,0.0,4.0,69,0.00,,BKN090,0.00,VWS V14.01,2013-02-15 00:58:00,
2013-02-14 20:00:00,41.6,33.9,29.94,WSW,253,0.0,0.0,74,0.00,,OVC100,0.00,VWS V14.01,2013-02-15 01:00:00,
2013-02-14 20:03:00,44.1,34.6,29.92,WSW,241,0.0,0.0,69,0.00,,BKN090,0.00,VWS V14.01,2013-02-15 01:03:00,
2013-02-14 20:08:00,43.8,34.7,29.92,WSW,243,0.0,0.0,70,0.00,,BKN090,0.00,VWS V14.01,2013-02-15 01:08:00,
2013-02-14 20:14:00,43.5,34.4,29.92,SSW,205,0.0,0.0,70,0.00,,BKN090,0.00,VWS V14.01,2013-02-15 01:14:00,
2013-02-14 20:15:00,41.8,33.8,29.94,SW,227,2.0,4.0,73,0.00,,OVC100,0.00,VWS V14.01,2013-02-15 01:15:00,
2013-02-14 20:19:00,43.3,34.5,29.92,SSW,205,0.0,0.0,71,0.00,,BKN090,0.00,VWS V14.01,2013-02-15 01:19:00,
2013-02-14 20:24:00,43.2,34.8,29.93,SSW,205,0.0,0.0,72,0.00,,BKN090,0.00,VWS V14.01,2013-02-15 01:24:00,
2013-02-14 20:29:00,42.9,34.5,29.93,SSW,205,0.0,0.0,72,0.00,,BKN090,0.00,VWS V14.01,2013-02-15 01:29:00,
2013-02-14 20:30:00,42.1,33.7,29.95,West,270,0.0,5.0,72,0.00,,OVC100,0.00,VWS V14.01,2013-02-15 01:30:00,
2013-02-14 20:34:00,42.6,34.2,29.93,SSW,205,0.0,0.0,72,0.00,,BKN090,0.00,VWS V14.01,2013-02-15 01:34:00,
2013-02-14 20:39:00,42.3,34.3,29.93,SSW,205,0.0,0.0,73,0.00,,BKN090,0.00,VWS V14.01,2013-02-15 01:39:00,
2013-02-14 20:44:00,42.2,34.2,29.93,SSW,205,0.0,0.0,73,0.00,,BKN090,0.00,VWS V14.01,2013-02-15 01:44:00,
2013-02-14 20:45:00,42.2,33.5,29.95,WNW,288,0.0,7.0,71,0.00,,OVC100,0.00,VWS V14.01,2013-02-15 01:45:00,
2013-02-14 20:49:00,41.8,33.8,29.93,WSW,253,0.0,5.0,73,0.00,,FEW070,0.00,VWS V14.01,2013-02-15 01:49:00,
2013-02-14 20:54:00,41.8,34.1,29.93,WSW,251,0.0,5.0,74,0.00,,FEW070,0.00,VWS V14.01,2013-02-15 01:54:00,
2013-02-14 20:59:00,41.6,33.9,29.94,WSW,253,0.0,0.0,74,0.00,,FEW070,0.00,VWS V14.01,2013-02-15 01:59:00,
2013-02-14 21:00:00,41.1,33.8,29.97,NNW,344,2.0,13.0,75,0.00,,OVC100,0.00,VWS V14.01,2013-02-15 02:00:00,
2013-02-14 21:04:00,41.6,33.9,29.94,WSW,248,2.0,3.0,74,0.00,,FEW055,0.00,VWS V14.01,2013-02-15 02:04:00,
2013-02-14 21:09:00,41.8,34.1,29.94,SW,224,0.0,5.0,74,0.00,,FEW055,0.00,VWS V14.01,2013-02-15 02:09:00,
2013-02-14 21:14:00,41.8,33.8,29.94,SW,236,0.0,5.0,73,0.00,,FEW055,0.00,VWS V14.01,2013-02-15 02:14:00,
2013-02-14 21:15:00,39.6,32.3,29.97,NW,315,6.0,8.0,75,0.00,,OVC100,0.00,VWS V14.01,2013-02-15 02:15:00,
2013-02-14 21:19:00,41.9,33.9,29.94,WSW,243,0.0,5.0,73,0.00,,FEW055,0.00,VWS V14.01,2013-02-15 02:19:00,
2013-02-14 21:24:00,42.1,33.7,29.94,SW,227,0.0,7.0,72,0.00,,FEW055,0.00,VWS V14.01,2013-02-15 02:24:00,
2013-02-14 21:29:00,42.1,33.7,29.95,West,267,2.0,5.0,72,0.00,,FEW055,0.00,VWS V14.01,2013-02-15 02:29:00,
2013-02-14 21:30:00,38.9,31.7,29.97,West,274,1.0,5.0,75,0.00,,OVC100,0.00,VWS V14.01,2013-02-15 02:30:00,
2013-02-14 21:34:00,42.2,33.5,29.95,WNW,285,3.0,16.0,71,0.00,,FEW055,0.00,VWS V14.01,2013-02-15 02:34:00,
2013-02-14 21:39:00,42.3,33.6,29.95,NW,304,0.0,11.0,71,0.00,,FEW055,0.00,VWS V14.01,2013-02-15 02:39:00,
2013-02-14 21:44:00,42.2,33.5,29.95,WNW,288,0.0,8.0,71,0.00,,FEW055,0.00,VWS V14.01,2013-02-15 02:44:00,
2013-02-14 21:45:00,38.3,31.1,29.99,West,275,3.0,6.0,75,0.00,,OVC100,0.00,VWS V14.01,2013-02-15 02:45:00,
2013-02-14 21:49:00,41.9,33.5,29.95,WNW,296,5.0,11.0,72,0.00,,FEW055,0.00,VWS V14.01,2013-02-15 02:49:00,
2013-02-14 21:54:00,41.5,33.8,29.95,WNW,282,1.0,11.0,74,0.00,,FEW055,0.00,VWS V14.01,2013-02-15 02:54:00,
2013-02-14 21:59:00,41.1,33.8,29.97,NW,325,1.0,13.0,75,0.00,,FEW055,0.00,VWS V14.01,2013-02-15 02:59:00,
2013-02-14 22:00:00,37.9,30.7,30.00,West,261,5.0,7.0,75,0.00,,OVC100,0.00,VWS V14.01,2013-02-15 03:00:00,
2013-02-14 22:04:00,40.5,33.2,29.97,NNW,339,3.0,15.0,75,0.00,,FEW055,0.00,VWS V14.01,2013-02-15 03:04:00,
2013-02-14 22:09:00,39.9,32.6,29.97,NNW,329,5.0,15.0,75,0.00,,FEW055,0.00,VWS V14.01,2013-02-15 03:09:00,
2013-02-14 22:14:00,39.6,32.3,29.97,WNW,288,2.0,8.0,75,0.00,,FEW055,0.00,VWS V14.01,2013-02-15 03:14:00,
2013-02-14 22:15:00,38.0,30.1,29.99,West,281,0.0,7.0,73,0.00,,OVC100,0.00,VWS V14.01,2013-02-15 03:15:00,
2013-02-14 22:19:00,39.3,32.0,29.97,NW,315,0.0,8.0,75,0.00,,CLR,0.00,VWS V14.01,2013-02-15 03:19:00,
2013-02-14 22:24:00,39.1,31.9,29.97,NW,319,0.0,5.0,75,0.00,,CLR,0.00,VWS V14.01,2013-02-15 03:24:00,
2013-02-14 22:29:00,38.9,31.7,29.97,West,272,3.0,5.0,75,0.00,,CLR,0.00,VWS V14.01,2013-02-15 03:29:00,
2013-02-14 22:30:00,37.8,29.6,29.99,NW,312,0.0,7.0,72,0.00,,OVC100,0.00,VWS V14.01,2013-02-15 03:30:00,
2013-02-14 22:34:00,38.8,31.6,29.97,WNW,298,0.0,7.0,75,0.00,,CLR,0.00,VWS V14.01,2013-02-15 03:34:00,
2013-02-14 22:39:00,38.5,31.3,29.98,West,281,0.0,7.0,75,0.00,,CLR,0.00,VWS V14.01,2013-02-15 03:39:00,
2013-02-14 22:44:00,38.3,31.1,29.99,West,278,0.0,6.0,75,0.00,,CLR,0.00,VWS V14.01,2013-02-15 03:44:00,
2013-02-14 22:45:00,37.5,29.3,29.99,WNW,292,0.0,7.0,72,0.00,,OVC100,0.00,VWS V14.01,2013-02-15 03:45:00,
2013-02-14 22:49:00,38.2,31.0,29.99,West,272,0.0,4.0,75,0.00,,CLR,0.00,VWS V14.01,2013-02-15 03:49:00,
2013-02-14 22:54:00,38.0,30.8,29.99,NW,306,0.0,8.0,75,0.00,,CLR,0.00,VWS V14.01,2013-02-15 03:54:00,
2013-02-14 22:59:00,37.9,30.7,30.00,West,277,3.0,8.0,75,0.00,,CLR,0.00,VWS V14.01,2013-02-15 03:59:00,
2013-02-14 23:00:00,37.0,28.8,29.99,West,281,2.0,5.0,72,0.00,,OVC100,0.00,VWS V14.01,2013-02-15 04:00:00,
2013-02-14 23:04:00,37.9,30.7,30.00,WSW,243,0.0,7.0,75,0.00,,CLR,0.00,VWS V14.01,2013-02-15 04:04:00,
2013-02-14 23:09:00,38.0,30.5,29.99,WNW,302,0.0,8.0,74,0.00,,CLR,0.00,VWS V14.01,2013-02-15 04:09:00,
2013-02-14 23:14:00,38.0,30.1,29.99,West,281,0.0,7.0,73,0.00,,CLR,0.00,VWS V14.01,2013-02-15 04:14:00,
2013-02-14 23:15:00,36.6,28.4,29.99,NW,326,1.0,6.0,72,0.00,,OVC100,0.00,VWS V14.01,2013-02-15 04:15:00,
2013-02-14 23:19:00,38.0,29.8,29.99,West,272,5.0,9.0,72,0.00,,CLR,0.00,VWS V14.01,2013-02-15 04:19:00,
2013-02-14 23:25:00,37.9,29.7,29.99,WNW,291,1.0,9.0,72,0.00,,CLR,0.00,VWS V14.01,2013-02-15 04:25:00,
2013-02-14 23:30:00,37.8,29.6,29.99,NW,312,0.0,7.0,72,0.00,,CLR,0.00,VWS V14.01,2013-02-15 04:30:00,
2013-02-14 23:35:00,37.8,29.6,29.99,NW,316,0.0,7.0,72,0.00,,FEW034,0.00,VWS V14.01,2013-02-15 04:35:00,
2013-02-14 23:40:00,37.6,29.4,29.99,NW,312,2.0,6.0,72,0.00,,FEW034,0.00,VWS V14.01,2013-02-15 04:40:00,
2013-02-14 23:45:00,37.5,29.3,29.99,WNW,292,0.0,7.0,72,0.00,,FEW034,0.00,VWS V14.01,2013-02-15 04:45:00,
2013-02-14 23:50:00,37.3,29.1,29.99,NW,309,1.0,6.0,72,0.00,,FEW034,0.00,VWS V14.01,2013-02-15 04:50:00,
2013-02-14 23:55:00,37.2,29.0,29.99,WNW,285,0.0,6.0,72,0.00,,FEW034,0.00,VWS V14.01,2013-02-15 04:55:00,